Theta_e
342 346 357 358 359 360 361 361 360 360 358 358 360 360 359 360 357 357 358 358 361 361 361 361 362 363 362 362 361 362 362 361 361 361 361 360 359 358 359 358 356 351 357
343 350 358 359 359 360 360 362 362 360 358 358 361 361 361 360 356 355 356 357 359 359 359 360 361 361 362 363 362 363 362 361 364 362 361 360 358 356 356 357 357 351 355
344 352 356 362 361 361 362 362 361 361 359 360 362 360 361 359 358 357 359 358 357 359 358 359 360 361 361 362 362 362 362 362 361 361 360 351 352 357 358 357 357 353 353
349 352 356 363 362 361 362 362 362 361 360 361 361 360 359 360 359 357 358 359 358 358 359 359 359 359 360 360 360 360 361 361 359 359 350 349 352 357 356 357 357 357 351
350 353 356 362 362 362 363 362 362 361 361 361 361 360 361 360 359 359 359 358 359 359 358 359 358 359 359 359 359 359 359 359 358 353 348 348 347 356 356 357 355 356 353
351 353 360 362 362 361 361 362 362 361 361 361 360 359 360 359 359 359 358 358 358 357 358 359 358 358 359 359 359 359 360 358 357 350 351 353 350 357 356 356 352 353 354
348 353 357 363 362 362 363 362 362 361 361 361 361 360 359 359 360 359 359 359 358 357 357 357 357 358 358 358 360 360 359 359 350 349 349 348 350 359 359 353 349 355 352
351 354 356 362 363 362 362 362 361 361 361 361 361 360 359 360 360 360 359 358 359 357 356 356 357 357 357 359 361 362 361 358 351 348 349 349 358 357 352 352 352 351 353
355 354 355 356 359 363 362 362 362 361 362 361 361 360 359 359 358 360 359 359 358 357 357 356 357 357 357 357 357 360 359 357 348 349 350 350 359 353 351 357 356 355 355
352 353 352 353 354 354 356 362 362 362 362 361 360 359 359 359 359 359 361 360 358 357 357 357 357 357 356 358 358 360 358 357 348 349 350 350 357 354 354 356 355 355 351
350 349 350 351 352 352 354 357 362 362 362 361 358 360 358 350 350 351 358 359 359 358 357 357 356 356 357 359 361 360 356 349 348 349 350 356 359 357 357 356 356 355 351
346 347 349 350 350 351 357 354 353 355 353 353 352 349 348 348 348 352 356 358 358 359 358 357 357 357 353 347 351 355 346 348 349 349 350 358 359 356 355 355 351 352 353
345 349 348 349 350 351 352 351 351 351 351 350 350 348 346 347 349 350 349 348 349 352 346 348 347 347 346 345 347 346 346 348 348 350 354 359 359 355 354 355 352 355 353
341 346 348 349 349 347 350 350 349 349 348 347 346 347 344 343 344 345 346 345 346 345 344 343 343 343 344 345 345 345 345 347 346 350 353 359 359 355 353 355 354 353 353
339 341 346 348 346 345 349 348 349 348 349 348 347 346 342 343 343 344 345 342 343 345 344 342 342 342 343 343 343 344 344 345 347 349 349 357 359 357 354 354 355 353 352
340 339 344 346 345 345 347 347 347 346 348 346 346 345 342 342 344 345 343 341 342 343 344 343 342 343 342 340 341 342 343 345 348 349 349 350 358 358 355 355 355 354 353
340 340 342 344 344 344 346 347 346 346 348 346 343 345 346 347 344 344 342 338 340 343 343 343 343 344 342 341 340 342 343 344 346 347 348 348 351 357 356 355 355 354 353
340 340 342 347 344 343 344 344 344 345 347 346 342 342 347 349 349 342 343 342 342 342 342 340 342 341 339 339 336 339 339 341 343 344 345 347 349 352 354 357 358 357 354
340 340 340 342 343 342 344 344 342 344 346 346 344 344 347 351 348 344 342 343 344 343 340 338 341 338 336 337 336 338 338 338 338 342 342 344 346 348 346 353 360 360 356
340 341 342 344 341 344 344 342 341 343 346 347 347 347 348 350 349 345 342 343 345 342 342 337 338 337 336 336 337 336 337 338 339 339 340 342 341 343 342 343 344 350 356
339 340 341 341 339 342 340 340 340 340 343 346 348 349 351 350 349 345 345 347 344 337 340 338 337 333 334 334 332 331 331 336 336 338 340 342 343 342 343 342 341 344 345
338 339 341 341 339 342 341 341 341 342 343 344 346 349 351 350 346 346 346 346 343 337 342 341 335 332 332 333 330 326 323 324 330 334 336 339 341 344 345 345 345 344 344
337 338 341 340 340 342 341 342 342 343 343 343 343 347 350 350 344 347 346 347 342 340 342 338 336 331 329 332 333 329 321 319 324 329 328 334 337 337 341 345 346 346 344
335 338 342 341 341 341 341 341 340 339 338 341 342 343 349 353 348 348 348 348 345 344 341 340 341 334 330 329 337 338 329 326 324 317 323 328 332 335 334 338 342 344 345
336 336 338 341 340 342 342 341 340 339 340 340 342 342 345 349 350 351 349 349 345 344 343 344 343 337 334 333 335 330 332 330 329 323 322 323 331 333 334 336 337 337 340
336 337 339 340 340 342 341 339 340 339 338 339 340 341 343 346 349 350 350 348 348 345 344 344 344 343 341 340 339 337 330 325 325 327 325 326 325 329 332 335 335 337 338
Wind_Speed
5 6 10 9 9 10 11 12 13 13 13 12 11 12 11 12 11 10 10 10 9 11 11 11 11 13 14 14 15 16 15 16 16 16 16 17 17 15 16 15 15 10 16
11 7 11 10 10 10 11 13 13 12 11 11 10 11 11 11 10 10 10 10 9 9 10 11 12 12 13 13 14 15 16 14 15 16 17 16 16 15 14 14 15 14 14
12 7 8 10 12 11 12 14 13 13 12 11 11 11 11 10 10 10 9 10 9 9 9 10 11 12 12 12 12 14 15 15 16 16 16 5 8 14 16 15 15 17 15
11 6 5 11 12 12 13 14 14 13 12 10 11 10 9 9 10 11 10 11 11 10 9 10 10 10 11 11 13 13 13 15 15 14 5 5 9 14 14 13 15 14 15
9 6 7 14 13 13 13 13 13 12 10 11 11 11 9 10 10 9 11 9 10 11 11 10 11 10 10 11 10 10 11 13 14 10 6 6 5 11 13 14 12 15 14
9 7 12 15 15 13 12 11 11 11 11 11 10 11 10 10 10 11 10 11 11 9 11 11 9 9 10 11 9 11 15 14 12 6 5 7 5 13 13 13 13 13 12
8 6 9 13 14 13 12 12 11 12 11 11 11 10 10 10 12 10 11 11 11 11 11 10 10 9 9 10 12 13 15 14 6 5 5 5 5 12 14 13 12 12 12
10 6 6 14 13 13 13 13 13 12 11 11 11 11 10 10 11 11 9 10 11 12 11 10 10 9 8 11 11 13 13 12 7 5 5 4 8 13 12 13 12 11 10
9 7 5 6 11 14 13 13 12 12 12 10 10 10 10 9 10 11 9 10 10 10 10 10 9 10 9 9 7 9 12 12 5 3 5 3 9 11 11 10 11 10 10
7 6 6 4 5 6 5 13 13 11 11 11 10 10 10 9 9 9 7 9 10 11 12 11 10 9 8 8 9 12 13 12 4 4 3 3 9 11 11 9 9 9 9
7 5 5 5 5 5 4 9 11 12 11 10 9 10 7 3 4 6 5 9 10 11 11 12 10 9 10 10 12 11 11 3 4 3 2 7 6 9 10 8 9 9 7
11 6 5 5 5 5 5 4 5 5 3 4 4 4 3 4 3 4 5 8 9 9 9 10 10 9 6 3 3 7 3 4 3 3 1 6 7 9 9 9 7 7 6
11 8 7 6 5 5 4 3 2 2 2 2 5 4 3 2 1 1 2 2 3 7 3 4 3 2 2 2 2 4 4 4 2 2 3 6 7 8 7 8 7 6 5
11 9 10 7 6 4 3 3 2 2 2 2 3 5 4 3 2 2 1 2 3 2 4 4 3 1 2 1 5 5 5 4 3 2 2 6 6 8 8 7 6 5 4
11 8 10 8 6 4 5 3 3 3 2 2 2 3 4 4 3 2 1 1 1 2 2 3 3 2 3 3 4 6 5 5 4 2 1 8 6 7 7 7 7 6 4
10 9 8 7 6 6 5 5 4 3 3 3 3 3 5 4 4 3 2 1 2 1 1 2 2 1 2 1 5 5 5 4 4 4 2 3 8 7 8 7 6 6 5
11 11 10 8 6 7 7 6 5 4 4 4 3 4 5 5 5 5 3 2 3 1 3 0 1 3 3 3 3 3 4 4 3 3 3 3 3 8 8 7 7 7 6
10 12 10 9 8 7 7 5 4 5 4 4 4 4 5 6 6 5 3 3 2 2 0 1 2 2 1 2 2 1 3 2 3 3 3 3 3 3 6 9 9 8 8
13 12 10 8 9 8 7 4 5 5 4 4 3 4 5 4 6 4 3 2 2 2 3 1 1 2 3 1 2 1 2 3 3 3 5 4 4 4 3 7 8 9 11
14 12 12 9 8 8 4 4 2 3 2 3 3 4 5 4 4 5 3 4 3 2 3 1 2 2 3 2 2 2 1 3 3 4 4 4 4 5 4 5 4 4 10
15 13 13 11 8 6 4 4 3 3 2 2 4 6 5 4 5 5 4 4 4 4 4 2 2 3 3 1 3 1 1 4 5 4 4 4 5 5 5 5 4 3 4
19 16 14 14 11 7 5 3 3 3 2 2 2 3 5 5 5 4 5 4 4 3 2 2 2 2 2 1 3 2 3 4 2 4 3 5 6 3 5 5 5 5 5
18 18 17 16 13 9 7 4 3 4 3 2 1 2 4 6 6 5 4 4 4 3 3 3 3 4 3 1 2 4 1 3 2 2 3 4 5 3 4 5 6 6 6
20 17 16 14 13 9 9 7 6 5 4 4 4 3 4 5 5 4 5 4 4 3 4 3 2 2 3 2 1 1 1 2 1 4 2 3 4 5 5 4 5 5 6
17 16 15 14 12 9 11 10 6 5 3 2 2 3 4 4 6 5 5 6 5 3 4 4 3 3 2 3 2 2 1 1 1 2 3 4 3 4 4 5 5 5 6
17 15 13 14 14 11 12 10 10 9 6 3 3 3 3 3 3 5 5 5 5 4 5 4 3 4 3 2 1 1 3 2 2 2 1 3 3 3 3 4 5 5 5
Wind_Direction
201 182 153 137 132 125 125 123 116 114 108 112 112 114 113 105 96 96 100 105 98 98 95 97 97 96 96 101 102 103 105 105 104 101 103 99 96 92 91 97 101 90 91
149 168 156 148 142 133 132 134 129 124 124 127 125 115 113 106 107 110 110 108 106 112 105 102 98 102 103 104 109 107 99 98 103 103 103 99 100 99 101 102 99 89 86
147 156 155 153 146 136 130 141 142 142 138 140 131 125 122 113 107 106 108 114 117 114 112 104 103 106 108 104 108 104 102 100 96 97 96 86 97 102 95 90 94 96 95
143 146 160 152 146 138 136 142 144 144 144 141 131 127 121 122 114 115 110 110 115 117 113 110 106 105 110 111 110 104 102 107 102 94 67 62 91 94 96 96 98 105 93
136 139 155 146 148 145 146 148 152 147 151 138 135 136 131 119 111 112 113 109 113 117 119 116 113 106 109 107 106 107 117 106 103 87 76 73 70 107 96 101 90 99 96
129 137 149 153 152 153 152 147 137 135 133 139 142 133 130 123 122 117 114 116 114 114 115 118 113 111 103 103 113 120 126 116 103 82 81 89 109 110 116 106 94 93 96
126 143 150 152 154 161 152 149 144 145 146 142 144 136 130 135 130 128 123 124 116 113 117 119 117 118 107 100 114 119 118 114 97 90 90 87 96 98 97 96 98 93 90
137 142 163 157 153 149 154 145 143 145 141 141 142 139 134 138 134 133 127 126 126 124 118 117 115 111 98 95 114 116 116 117 93 88 96 100 111 105 107 105 104 104 102
139 136 135 148 155 152 144 140 142 142 144 143 138 133 138 138 137 133 136 121 119 121 119 119 115 112 97 89 99 129 112 116 90 97 114 96 106 108 108 100 101 99 89
136 127 131 132 115 124 139 141 142 145 146 145 136 141 140 143 140 129 124 127 122 122 121 122 120 117 103 88 115 118 121 119 106 90 79 107 112 119 115 111 108 108 97
140 130 129 130 126 130 137 149 145 147 150 143 136 144 125 91 99 108 140 125 117 117 120 122 125 122 112 110 118 126 115 108 105 98 79 132 132 119 114 116 112 102 98
159 153 145 144 147 151 148 121 136 158 137 132 116 98 98 100 138 152 141 122 115 111 114 118 125 121 92 101 93 110 118 117 108 123 113 153 138 120 122 108 104 114 117
167 163 163 160 159 167 130 142 162 110 136 149 143 137 130 103 68 101 69 78 76 97 78 81 94 76 151 116 118 135 125 119 127 130 166 160 140 138 124 123 137 124 126
173 176 169 168 164 173 139 144 131 128 162 163 185 169 137 134 171 159 147 153 120 123 116 113 71 63 23 210 180 143 137 137 146 138 193 148 154 157 156 155 148 149 155
172 180 178 165 166 168 145 135 160 179 190 208 191 188 143 146 177 169 208 178 185 135 129 99 105 96 327 279 151 151 144 146 150 155 188 172 178 177 171 171 172 178 183
176 175 174 171 170 156 154 177 185 186 213 184 183 195 166 157 174 189 170 247 295 110 282 139 155 76 359 79 140 137 143 144 155 176 189 206 193 193 193 192 196 201 210
188 170 176 174 171 165 176 191 178 190 181 195 187 189 188 164 189 161 177 198 247 274 300 0 32 356 352 48 121 129 124 142 164 182 200 221 227 213 212 212 214 221 234
177 179 168 181 182 168 181 194 178 187 176 188 180 194 197 172 159 156 169 212 214 262 285 327 135 210 66 87 90 162 127 164 171 202 223 222 225 235 241 236 230 232 240
181 174 169 172 180 176 197 181 167 173 170 179 163 191 190 164 146 148 161 219 158 167 241 79 162 136 116 321 144 178 174 187 198 216 231 229 233 241 248 264 255 242 245
175 177 174 166 168 170 164 128 132 131 122 143 182 188 181 172 162 161 158 164 141 108 275 223 147 52 105 154 107 112 252 220 210 227 246 240 227 237 244 250 264 262 261
172 168 177 164 165 157 148 136 113 159 151 175 198 180 177 177 180 173 173 151 151 154 200 177 100 81 37 92 87 8 304 240 239 224 216 233 232 225 229 232 239 248 262
172 174 177 181 170 172 152 140 135 146 166 188 163 191 175 183 184 174 172 154 173 142 148 152 110 97 48 93 130 75 358 327 291 246 233 235 238 224 236 235 236 241 246
177 174 177 181 174 177 164 118 86 83 65 66 130 196 208 185 187 191 185 162 155 153 166 191 149 140 136 264 217 137 89 241 321 322 271 249 255 239 249 250 238 238 240
189 180 177 176 178 176 165 155 145 156 155 201 183 181 195 193 199 202 188 185 177 159 180 184 164 134 122 178 331 125 107 155 148 336 319 297 257 247 248 256 253 248 241
179 184 183 181 180 176 172 169 154 150 173 183 164 186 199 195 204 204 213 185 179 191 188 173 161 156 166 147 185 97 99 319 106 127 295 317 331 267 248 240 238 248 249
181 184 182 180 188 181 178 168 169 172 166 169 181 197 207 211 201 211 218 205 189 194 184 184 195 183 188 161 138 177 172 188 214 161 226 282 242 293 268 249 231 235 248